Regional Weather Roundup
Issued by NWS Kansas City/Pleasant Hill, MO

Home | Current Version | Previous Version | Text Only | Print | Product List | Glossary On
Versions: 1 2 3 4 5 6 7 8 9 10 11 12 13 14 15 16 17 18 19 20 21 22 23 24 25 26 27 28 29 30 31 32 33 34 35 36 37 38 39 40 41 42 43 44 45 46 47 48 49 50
000
ASUS43 KEAX 120310
RWREAX

WEATHER ROUNDUP FOR EASTERN KANSAS AND NORTHWEST MISSOURI
NATIONAL WEATHER SERVICE KANSAS CITY/PLEASANT HILL MO
900 PM CST THU FEB 11 2016

KSZ040-057-103>105-MOZ028-029-037-043-120400-
...KANSAS CITY METROPOLITAN AREA...

CITY           SKY/WX    TMP DP  RH WIND       PRES   REMARKS
K.C. INTL      MOCLDY    32  21  64 SE5       30.18F WCI  27
K.C. DOWNTOWN  MOCLDY    35  21  56 E6        30.18F WCI  30
LEES SUMMIT    CLOUDY    33  20  58 VRB3      30.19F
OLATHE - IXD   CLOUDY    34  23  64 CALM      30.18F
OLATHE - OJC   CLOUDY    33  21  61 E3        30.19F
LAWRENCE       MOCLDY    34  24  67 CALM      30.19F

$$

MOZ001>008-011>017-020>025-030>033-038>040-044>046-053-054-120400-
...NORTHERN AND CENTRAL MISSOURI...

CITY           SKY/WX    TMP DP  RH WIND       PRES   REMARKS
ST. JOSEPH     MOCLDY    30  20  66 SE5       30.20S WCI  25
MOSBY          CLOUDY    32  21  64 SE5       30.19F WCI  27
WARRENSBURG    CLOUDY    32  21  64 NE7       30.21F WCI  26
WHITEMAN AFB   MOCLDY    32  20  61 NE7       30.21R WCI  26
CLINTON          N/A     34  27  75 N5        30.20S WCI  30
SEDALIA        CLOUDY    33  20  58 NE7       30.23R WCI  27
WARSAW         NOT AVBL
CHILLICOTHE      N/A     28  15  58 E5        30.23F WCI  23
KIRKSVILLE     CLOUDY    23  11  60 E7        30.25S WCI  15

$$

MOZ041-047>049-056>058-063>065-088>090-097-120400-
...EASTERN AND SOUTHERN MISSOURI...

CITY           SKY/WX    TMP DP  RH WIND       PRES   REMARKS
ST. LOUIS INTL CLOUDY    28  10  46 E10       30.27F WCI  19
SPIRIT OF STL  CLOUDY    29  12  49 E3        30.27F
COLUMBIA       CLOUDY    30  19  63 E8        30.21F WCI  22
JEFFERSON CITY CLOUDY    31  19  61 E8        30.21F WCI  23
ROLLA          CLOUDY    30  20  66 E8        30.18F WCI  22
OSAGE BEACH    MOCLDY    34  19  55 E6        30.18F WCI  29
SPRINGFIELD    CLOUDY    40  20  44 E3        30.15F
BRANSON        CLOUDY    41  19  42 SE6       30.17F
JOPLIN         CLOUDY    40  23  50 N5        30.17F
WEST PLAINS    MOCLDY    37  19  48 SE9       30.19S WCI  30

$$

IAZ060-094-KSZ022-034>040-054-083-096-NEZ052-066-093-120400-
...KANSAS...SOUTHEAST NEBRASKA AND IOWA...

CITY           SKY/WX    TMP DP  RH WIND       PRES   REMARKS
TOPEKA         MOCLDY    36  24  62 S3        30.18F
MANHATTAN      CLOUDY    32  25  75 CALM      30.17F
EMPORIA        CLOUDY    33  23  66 CALM      30.19R
CHANUTE        PTCLDY    36  24  62 E3        30.18S
WICHITA        PTCLDY    38  26  62 NE3       30.18R
OMAHA          FLURRIES  25  19  78 N5        30.21S WCI  19
LINCOLN        CLOUDY    30  24  78 E3        30.19S
FALLS CITY     CLOUDY    30  21  69 SE3       30.17F
LAMONI         CLOUDY    25  13  60 E5        30.21S WCI  19
DES MOINES     LGT SNOW  19  14  81 E5        30.25F WCI  12

$$




USA.gov is the U.S. government's official web portal to all federal, state and local government web resources and services.